Location: *
(51.2167°N, 10.0667°E)
Time: 04:40:25
(UTC+00:00)

COSMOS 2455 - Pass Details

Date: 12 December 2019
Orbit: 903 x 907 km, 67.1° (Epoch: 28 January)

Event Time Altitude Azimuth Distance (km) Brightness Sun altitude
Rises 16:07:24 0° 260° (W) 3,529 7.7 -8.2°
Reaches altitude 10° 16:10:16 10° 271° (W) 2,591 6.3 -8.6°
Maximum altitude 16:15:24 28° 330° (NNW) 1,628 4.2 -9.3°
Drops below altitude 10° 16:20:33 10° 29° (NNE) 2,601 4.8 -10.0°
Enters shadow 16:21:19 - 33° (NNE) 2,835 4.9 -10.1°
